Flint, MI

10:16 PM EDT on April 24, 2017 (GMT -0400)
Bishop International

Weather History for KFNT - November, 2013

Change the Weather History Date:

Saturday, November 16, 2013

  Actual Average Record
Temperature  
Mean Temperature 47 °F 39 °F  
Max Temperature 58 °F 47 °F 68 °F (1953)
Min Temperature 35 °F 31 °F 7 °F (1933)
Degree Days  
Heating Degree Days 18 26  
Month to date heating degree days 372 374  
Since 1 July heating degree days 938 1070  
Cooling Degree Days 0 0  
Month to date cooling degree days 0 0  
Year to date cooling degree days 758 531  
Moisture  
Dew Point 40 °F    
Average Humidity 73    
Maximum Humidity 89    
Minimum Humidity 57    
Precipitation  
Precipitation 0.02 in 0.09 in 0.89 in (1988)
Month to date precipitation 0.76 1.46  
Year to date precipitation 29.87 28.24  
Snow  
Snow 0.00 in 0.10 in 4.80 in (1989)
Month to date snowfall 0.4 0.6  
Since 1 July snowfall 0.4 1.0  
Since 1 September snowfall 0.4 1.0  
Snow Depth 0.00 in    
Sea Level Pressure  
Sea Level Pressure 29.98 in    
Wind  
Wind Speed 12 mph (South)    
Max Wind Speed 22 mph    
Max Gust Speed 30 mph    
Visibility 9 miles    
Events Rain    
T = Trace of Precipitation, MM = Missing Value Source: NWS Daily Summary

Daily Weather History Graph

Daily Weather History Graph

Search for Another Location

Airport or City:

Trip Planner

Search our weather history database for the weather conditions in past years. The results will help you decide how hot, cold, wet, or windy it might be!

Date:

Astronomy

Nov. 16, 2013 Rise Set
Actual Time 7:28 AM EST 5:10 PM EST
Civil Twilight 6:58 AM EST 5:40 PM EST
Nautical Twilight 6:23 AM EST 6:15 PM EST
Astronomical Twilight 5:50 AM EST 6:48 PM EST
Moon 4:45 PM EST (11/16) 6:22 AM EST (11/16)
Length of Visible Light 10h 42m
Length of Day
9h 41m
Waxing Gibbous, 99% of the Moon is Illuminated
Nov 16
Waxing Gibbous
Nov 17
Full
Nov 25
Last Quarter
Dec 2
New
Dec 9
First Quarter

Hourly Weather History & Observations

Time (EST) Temp. Windchill Dew Point Humidity Pressure Visibility Wind Dir Wind Speed Gust Speed Precip Events Conditions
12:53 AM 41.0 °F 37.1 °F 28.0 °F 60% 30.06 in 10.0 mi South 5.8 mph - N/A   Clear
1:53 AM 39.0 °F 33.4 °F 28.0 °F 65% 30.06 in 10.0 mi South 8.1 mph - N/A   Clear
2:53 AM 39.9 °F 35.1 °F 28.0 °F 63% 30.06 in 10.0 mi South 6.9 mph - N/A   Clear
3:53 AM 39.9 °F 35.1 °F 28.9 °F 65% 30.06 in 10.0 mi South 6.9 mph - N/A   Clear
4:53 AM 39.9 °F 34.5 °F 30.9 °F 70% 30.09 in 10.0 mi South 8.1 mph - N/A   Clear
5:53 AM 37.9 °F 33.5 °F 32.0 °F 79% 30.09 in 10.0 mi South 5.8 mph - N/A   Clear
6:53 AM 36.0 °F 30.3 °F 32.0 °F 86% 30.09 in 9.0 mi SSE 6.9 mph - N/A   Clear
7:28 AM 39.2 °F 35.0 °F 35.6 °F 87% 30.08 in 8.0 mi South 5.8 mph - N/A   Scattered Clouds
7:32 AM 39.2 °F 35.0 °F 35.6 °F 87% 30.08 in 8.0 mi South 5.8 mph - N/A   Mostly Cloudy
7:53 AM 41.0 °F 36.4 °F 37.0 °F 86% 30.10 in 5.0 mi South 6.9 mph - N/A   Mostly Cloudy
8:41 AM 42.8 °F 38.0 °F 39.2 °F 87% 30.08 in 5.0 mi South 8.1 mph - N/A   Overcast
8:53 AM 44.1 °F 40.8 °F 39.9 °F 85% 30.09 in 5.0 mi South 5.8 mph - N/A   Overcast
9:11 AM 44.6 °F 39.7 °F 41.0 °F 87% 30.06 in 4.0 mi South 9.2 mph - N/A   Overcast
9:53 AM 46.0 °F 40.6 °F 41.0 °F 83% 30.06 in 6.0 mi SSE 11.5 mph - N/A   Haze
10:53 AM 48.0 °F - 41.0 °F 77% 30.05 in 8.0 mi SSE 10.4 mph - N/A   Overcast
11:53 AM 50.0 °F - 42.1 °F 74% 30.01 in 9.0 mi SSE 15.0 mph - N/A   Overcast
12:53 PM 52.0 °F - 43.0 °F 71% 29.99 in 10.0 mi South 16.1 mph 19.6 mph N/A   Overcast
1:53 PM 54.0 °F - 44.1 °F 69% 29.94 in 10.0 mi SSE 16.1 mph - N/A   Mostly Cloudy
2:53 PM 55.0 °F - 45.0 °F 69% 29.91 in 10.0 mi South 13.8 mph 21.9 mph N/A   Mostly Cloudy
3:53 PM 54.0 °F - 45.0 °F 72% 29.91 in 10.0 mi SSE 15.0 mph - N/A   Clear
4:53 PM 54.0 °F - 46.0 °F 75% 29.90 in 10.0 mi SSE 13.8 mph - N/A   Clear
5:53 PM 54.0 °F - 46.0 °F 75% 29.88 in 10.0 mi SSE 15.0 mph - N/A   Clear
6:53 PM 54.0 °F - 46.9 °F 77% 29.86 in 10.0 mi South 16.1 mph 21.9 mph N/A   Clear
7:53 PM 55.0 °F - 46.9 °F 74% 29.84 in 10.0 mi South 21.9 mph 29.9 mph N/A   Clear
8:53 PM 55.0 °F - 48.0 °F 77% 29.83 in 10.0 mi South 17.3 mph 27.6 mph N/A   Mostly Cloudy
9:19 PM 55.4 °F - 48.2 °F 77% 29.82 in 10.0 mi South 20.7 mph 26.5 mph N/A   Overcast
9:53 PM 55.9 °F - 48.9 °F 77% 29.81 in 9.0 mi South 12.7 mph 21.9 mph N/A   Overcast
10:53 PM 57.0 °F - 50.0 °F 77% 29.78 in 10.0 mi South 16.1 mph 27.6 mph N/A   Overcast
11:53 PM 57.0 °F - 52.0 °F 83% 29.77 in 5.0 mi South 11.5 mph 24.2 mph 0.01 in Rain Rain